Paducah, KY

6:00 AM CDT on May 27, 2017 (GMT -0500)
Barkley Regional

Weather History for KPAH - February, 2012

Change the Weather History Date:

Wednesday, February 29, 2012

  Actual Average Record
Temperature  
Mean Temperature 59 °F 43 °F  
Max Temperature 70 °F 54 °F 76 °F (1972)
Min Temperature 48 °F 33 °F 17 °F (1960)
Degree Days  
Heating Degree Days 6 22  
Month to date heating degree days 631 744  
Since 1 July heating degree days 2803 3318  
Cooling Degree Days 0 0  
Month to date cooling degree days 0 0  
Year to date cooling degree days 0 0  
Growing Degree Days 10 (Base 50)    
Moisture  
Dew Point 50 °F    
Average Humidity 59    
Maximum Humidity 87    
Minimum Humidity 30    
Precipitation  
Precipitation 0.54 in 0.13 in 1.10 in (1944)
Month to date precipitation 2.19 3.91  
Year to date precipitation 5.74 7.59  
Snow  
Snow T in 0.10 in T in (2012)
Month to date snowfall 0.3 3.2  
Since 1 July snowfall 0.7 8.5  
Snow Depth 0.00 in    
Sea Level Pressure  
Sea Level Pressure 29.79 in    
Wind  
Wind Speed 15 mph (WSW)    
Max Wind Speed 32 mph    
Max Gust Speed 41 mph    
Visibility 9 miles    
Events Rain , Thunderstorm    
T = Trace of Precipitation, MM = Missing Value Source: NWS Daily Summary

Daily Weather History Graph

Daily Weather History Graph

Search for Another Location

Airport or City:

Trip Planner

Search our weather history database for the weather conditions in past years. The results will help you decide how hot, cold, wet, or windy it might be!

Date:

Astronomy

Feb. 29, 2012 Rise Set
Actual Time 6:26 AM CST 5:48 PM CST
Civil Twilight 6:00 AM CST 6:14 PM CST
Nautical Twilight 5:30 AM CST 6:45 PM CST
Astronomical Twilight 5:00 AM CST 7:15 PM CST
Moon 10:28 AM CST (2/29) 12:25 AM CST (2/29)
Length of Visible Light 12h 14m
Length of Day
11h 22m
Waxing Crescent, 47% of the Moon is Illuminated
Feb 29
Waxing Crescent
Feb 29
First Quarter
Mar 8
Full
Mar 14
Last Quarter
Mar 22
New

Hourly Weather History & Observations

Time (CST) Temp. Dew Point Humidity Pressure Visibility Wind Dir Wind Speed Gust Speed Precip Events Conditions
12:53 AM 64.0 °F 60.1 °F 87% 29.82 in 10.0 mi South 16.1 mph 26.5 mph 0.00 in   Overcast
1:53 AM 66.0 °F 62.1 °F 87% 29.81 in 10.0 mi SSW 15.0 mph 26.5 mph 0.00 in   Overcast
2:53 AM 66.9 °F 62.1 °F 84% 29.80 in 10.0 mi SW 12.7 mph 25.3 mph N/A   Overcast
3:05 AM 66.2 °F 62.6 °F 88% 29.79 in 10.0 mi SSW 15.0 mph 25.3 mph 0.00 in   Overcast
3:13 AM 66.2 °F 62.6 °F 88% 29.79 in 10.0 mi SSW 10.4 mph 26.5 mph 0.00 in   Overcast
3:44 AM 66.2 °F 62.6 °F 88% 29.81 in 10.0 mi SSW 16.1 mph 23.0 mph 0.00 in   Overcast
3:53 AM 68.0 °F 62.1 °F 81% 29.80 in 10.0 mi SSW 17.3 mph 29.9 mph 0.00 in   Overcast
4:00 AM 66.2 °F 62.6 °F 88% 29.80 in 10.0 mi SSW 17.3 mph 25.3 mph N/A   Overcast
4:08 AM 68.0 °F 62.6 °F 83% 29.79 in 10.0 mi SSW 9.2 mph 27.6 mph N/A   Mostly Cloudy
4:53 AM 69.1 °F 62.1 °F 78% 29.76 in 10.0 mi SSW 15.0 mph 34.5 mph N/A   Mostly Cloudy
5:08 AM 69.8 °F 60.8 °F 73% 29.77 in 10.0 mi SSW 16.1 mph 24.2 mph N/A Thunderstorm Scattered Clouds
5:21 AM 69.8 °F 60.8 °F 73% 29.74 in 10.0 mi SSW 16.1 mph 31.1 mph N/A Thunderstorm Thunderstorm
5:46 AM 62.6 °F 55.4 °F 77% 29.82 in 10.0 mi West 25.3 mph 39.1 mph 0.00 in Rain , Thunderstorm Light Thunderstorms and Rain
5:53 AM 61.0 °F 55.0 °F 81% 29.81 in 4.0 mi West 23.0 mph 34.5 mph 0.03 in Rain , Thunderstorm Heavy Thunderstorms and Rain
5:56 AM 60.8 °F 55.4 °F 82% 29.83 in 1.8 mi West 24.2 mph 33.4 mph 0.03 in Rain , Thunderstorm Heavy Thunderstorms and Rain
6:00 AM 59.0 °F 57.2 °F 94% 29.82 in 0.8 mi West 18.4 mph 31.1 mph 0.21 in Rain , Thunderstorm Heavy Thunderstorms and Rain
6:08 AM 60.8 °F 57.2 °F 88% 29.82 in 2.0 mi West 25.3 mph 39.1 mph 0.42 in Rain , Thunderstorm Light Thunderstorms and Rain
6:15 AM 60.8 °F 57.2 °F 88% 29.80 in 7.0 mi WSW 21.9 mph 39.1 mph 0.43 in Rain , Thunderstorm Light Thunderstorms and Rain
6:31 AM 60.8 °F 57.2 °F 88% 29.81 in 8.0 mi West 13.8 mph - 0.48 in Rain Light Rain
6:53 AM 59.0 °F 53.1 °F 81% 29.78 in 8.0 mi WSW 11.5 mph - 0.51 in Rain Light Rain
7:14 AM 59.0 °F 53.6 °F 82% 29.79 in 10.0 mi West 8.1 mph - 0.00 in Thunderstorm Thunderstorm
7:49 AM 60.8 °F 51.8 °F 72% 29.82 in 10.0 mi WSW 10.4 mph - 0.00 in   Mostly Cloudy
7:53 AM 59.0 °F 52.0 °F 78% 29.82 in 10.0 mi WSW 11.5 mph - 0.00 in   Mostly Cloudy
8:53 AM 59.0 °F 50.0 °F 72% 29.82 in 10.0 mi WSW 11.5 mph - N/A   Scattered Clouds
9:53 AM 61.0 °F 46.9 °F 60% 29.80 in 10.0 mi SW 11.5 mph 20.7 mph N/A   Mostly Cloudy
10:53 AM 62.1 °F 45.0 °F 53% 29.80 in 10.0 mi WSW 17.3 mph 21.9 mph N/A   Overcast
11:53 AM 62.1 °F 46.0 °F 56% 29.79 in 10.0 mi WSW 12.7 mph - N/A   Overcast
12:53 PM 64.0 °F 43.0 °F 46% 29.75 in 10.0 mi WSW 10.4 mph - N/A   Overcast
1:53 PM 68.0 °F 42.1 °F 39% 29.71 in 10.0 mi WSW 16.1 mph 21.9 mph N/A   Mostly Cloudy
2:53 PM 68.0 °F 45.0 °F 43% 29.70 in 10.0 mi WSW 23.0 mph 29.9 mph N/A   Clear
3:53 PM 69.1 °F 42.1 °F 38% 29.70 in 10.0 mi WSW 24.2 mph 33.4 mph N/A   Clear
4:53 PM 68.0 °F 39.0 °F 35% 29.70 in 10.0 mi WSW 25.3 mph 33.4 mph N/A   Clear
5:53 PM 64.0 °F 35.1 °F 34% 29.73 in 10.0 mi West 13.8 mph 20.7 mph N/A   Clear
6:53 PM 63.0 °F 30.9 °F 30% 29.76 in 10.0 mi West 15.0 mph - N/A   Clear
7:53 PM 57.9 °F 32.0 °F 37% 29.79 in 10.0 mi West 10.4 mph - N/A   Clear
8:53 PM 55.4 °F 30.2 °F 38% 29.82 in 10.0 mi West 13.8 mph - N/A   Clear
9:53 PM 52.0 °F 28.9 °F 41% 29.85 in 10.0 mi WSW 9.2 mph - N/A   Clear
10:53 PM 52.0 °F 30.0 °F 43% 29.87 in 10.0 mi WSW 11.5 mph - N/A   Clear
11:53 PM 48.9 °F 30.9 °F 50% 29.88 in 10.0 mi WSW 9.2 mph - N/A   Clear